Terminal Aerodrome Forecast
Issued by NWS Key West, FL

Home | Current Version | Previous Version | Text Only | Print | Product List | Glossary On
Versions: 1 2 3 4 5 6 7 8 9 10 11 12 13 14 15 16 17 18 19 20 21 22 23 24 25 26 27 28 29 30 31 32 33 34 35 36 37 38 39 40 41 42 43 44 45 46 47 48 49 50
000
FTUS42 KKEY 070845 AAA
TAFEYW
TAF AMD
KEYW 070845Z 0709/0806 34012G19KT P6SM SCT022 SCT035 OVC060
     FM071300 34018G25KT P6SM FEW022 OVC060
     FM072000 34014G19KT P6SM FEW023=

USA.gov is the U.S. government's official web portal to all federal, state and local government web resources and services.